Location: Bittelbronn
(48.4454°N, 8.5870°E)
Time: 21:18:29
(UTC+00:00)

Cosmos 2082 Rocket - Pass Details

Date: 23 May 2024
Orbit: 832 x 853 km, 71.0° (Epoch: 16 June)

Event Time Altitude Azimuth Distance (km) Brightness Sun altitude
Exits shadow 01:48:49 10° 256° (WSW) 2,466 4.2 -13.6°
Maximum altitude 01:53:37 28° 314° (NW) 1,558 3.7 -13.1°
Drops below altitude 10° 01:58:29 10° 12° (NNE) 2,492 5.8 -12.6°
Sets 02:01:19 0° 24° (NNE) 3,429 7.1 -12.3°
